Chillicothe, MO

10:25 AM CST on February 12, 2016 (GMT -0600)
Chillicothe

Weather History for KCDJ - December, 2012

Change the Weather History Date:

Tuesday, December 18, 2012

  Actual Average (KIRK) Record (KIRK)
Temperature  
Mean Temperature 41 °F 28 °F  
Max Temperature 54 °F 36 °F - ()
Min Temperature 28 °F 20 °F - ()
Degree Days  
Heating Degree Days 24 37  
Month to date heating degree days 626  
Since 1 July heating degree days 1847  
Cooling Degree Days 0 0  
Month to date cooling degree days 0  
Year to date cooling degree days 939  
Moisture  
Dew Point 32 °F    
Average Humidity 73    
Maximum Humidity 92    
Minimum Humidity 47    
Precipitation  
Precipitation 0.00 in 0.06 in - ()
Month to date precipitation 1.10  
Year to date precipitation 38.66  
Sea Level Pressure  
Sea Level Pressure 29.75 in    
Wind  
Wind Speed 7 mph (WSW)    
Max Wind Speed 15 mph    
Max Gust Speed 29 mph    
T = Trace of Precipitation, MM = Missing Value Source: NWS Daily Summary

Daily Weather History Graph

Daily Weather History Graph

Search for Another Location

Airport or City:

Trip Planner

Search our weather history database for the weather conditions in past years. The results will help you decide how hot, cold, wet, or windy it might be!

Date:

Astronomy

Dec. 18, 2012 Rise Set
Actual Time 7:30 AM CST 4:51 PM CST
Civil Twilight 7:00 AM CST 5:22 PM CST
Nautical Twilight 6:26 AM CST 5:56 PM CST
Astronomical Twilight 5:53 AM CST 6:29 PM CST
Moon 11:11 AM CST (12/18) 11:17 PM CST (12/18)
Length of Visible Light 10h 22m
Length of Day
9h 21m
Waxing Crescent, 35% of the Moon is Illuminated
Dec 18
Waxing Crescent
Dec 19
First Quarter
Dec 28
Full
Jan 4
Last Quarter
Jan 11
New

Hourly Weather History & Observations

Time (CST) Temp. Windchill Dew Point Humidity Pressure Visibility Wind Dir Wind Speed Gust Speed Precip Events Conditions
12:52 AM 28.9 °F 25.2 °F 27.0 °F 92% 29.74 in - ESE 3.5 mph - N/A   Unknown
1:52 AM 32.0 °F 26.4 °F 30.0 °F 92% 29.72 in - SE 5.8 mph - N/A   Unknown
2:52 AM 33.1 °F 26.1 °F 30.9 °F 92% 29.68 in - SE 8.1 mph - N/A   Unknown
3:52 AM 35.1 °F 27.9 °F 32.0 °F 89% 29.65 in - SSE 9.2 mph - N/A   Unknown
4:52 AM 39.0 °F 31.8 °F 34.0 °F 82% 29.62 in - South 11.5 mph - N/A   Unknown
5:52 AM 39.0 °F 32.8 °F 33.1 °F 79% 29.63 in - South 9.2 mph - N/A   Unknown
6:52 AM 37.9 °F 30.9 °F 33.1 °F 83% 29.62 in - South 10.4 mph - N/A   Unknown
7:52 AM 37.0 °F 31.0 °F 33.1 °F 86% 29.64 in - SSW 8.1 mph - N/A   Unknown
8:52 AM 41.0 °F 35.2 °F 34.0 °F 76% 29.65 in - SW 9.2 mph - N/A   Unknown
9:52 AM 46.9 °F - 34.0 °F 61% 29.66 in - SW 10.4 mph 17.3 mph N/A   Unknown
10:52 AM 51.1 °F - 34.0 °F 52% 29.68 in - West 9.2 mph 24.2 mph N/A   Unknown
11:52 AM 53.1 °F - 34.0 °F 48% 29.67 in - West 11.5 mph 27.6 mph N/A   Unknown
12:52 PM 54.0 °F - 34.0 °F 47% 29.68 in - West 9.2 mph 27.6 mph N/A   Unknown
1:52 PM 53.1 °F - 33.1 °F 47% 29.70 in - WNW 15.0 mph 28.8 mph N/A   Unknown
2:52 PM 53.1 °F - 34.0 °F 48% 29.73 in - NW 13.8 mph 23.0 mph N/A   Unknown
3:52 PM 50.0 °F - 34.0 °F 54% 29.77 in - WNW 11.5 mph 18.4 mph N/A   Unknown
4:52 PM 45.0 °F 41.2 °F 33.1 °F 63% 29.81 in - NW 6.9 mph - N/A   Unknown
5:52 PM 41.0 °F 38.0 °F 32.0 °F 70% 29.85 in - NW 4.6 mph - N/A   Unknown
6:52 PM 39.0 °F 36.8 °F 32.0 °F 76% 29.88 in - NW 3.5 mph - N/A   Unknown
7:52 PM 37.0 °F 34.5 °F 32.0 °F 82% 29.90 in - North 3.5 mph - N/A   Unknown
8:52 PM 36.0 °F - 30.0 °F 79% 29.91 in - Calm Calm - N/A   Unknown
9:52 PM 34.0 °F - 30.0 °F 85% 29.92 in - Calm Calm - N/A   Unknown
10:52 PM 32.0 °F - 28.0 °F 85% 29.93 in - Calm Calm - N/A   Unknown
11:52 PM 30.9 °F 27.5 °F 28.0 °F 89% 29.95 in - SSW 3.5 mph - N/A   Unknown